Regional Weather Roundup
Issued by NWS Albany, NY

Home | Current Version | Previous Version | Text Only | Print | Product List | Glossary On
Versions: 1 2 3 4 5 6 7 8 9 10 11 12 13 14 15 16 17 18 19 20 21 22 23 24 25 26 27 28 29 30 31 32 33 34 35 36 37 38 39 40 41 42 43 44 45 46 47 48 49 50
000
ASUS41 KALY 130010
RWRALY

NEW YORK STATE HOURLY WEATHER ROUNDUP
NATIONAL WEATHER SERVICE ALBANY NY
800 PM EDT SAT JUL 12 2014

NOTE: "FAIR" INDICATES FEW OR NO CLOUDS BELOW 12,000 FEET WITH NO
SIGNIFICANT WEATHER AND/OR NO OBSTRUCTIONS TO VISIBILITY.

NYZ032-033-038>043-046>054-057>066-NYZ062>081-130100-
EAST


CITY           SKY/WX    TMP DP  RH WIND       PRES   REMARKS
ALBANY         MOCLDY    82  63  52 S9        30.07F
GLENS FALLS    MOCLDY    79  65  62 S5        30.06F
POUGHKEEPSIE   CLEAR     80  60  50 S6        30.11R
MONTGOMERY     PTCLDY    78  63  59 S6        30.11R
WHITE PLAINS   CLEAR     74  58  57 S7        30.15S
ISLIP          PTCLDY    74  64  71 S10       30.15F
NEW YORK CITY  PTCLDY    75  64  68 S18G25    30.14S
CENTRAL PARK   CLEAR     76  58  53 VRB3      30.17S
$$

NYZ005>009-017-018-044>046-055-056-130100-
CENTRAL


CITY           SKY/WX    TMP DP  RH WIND       PRES   REMARKS
FULTON         PTCLDY    76  54  46 N5        30.07S
SYRACUSE       MOCLDY    77  60  55 N10       30.07R
ROME           PTCLDY    78  70  76 NE6       30.05F
ELMIRA         PTCLDY    79  63  57 W3        30.08S
BINGHAMTON     CLEAR     78  61  55 SW6       30.12F
$$

NYZ026>034-041>043-130100-
NORTH


CITY           SKY/WX    TMP DP  RH WIND       PRES   REMARKS
WATERTOWN      CLEAR     76  58  53 SW3       30.06S
FORT DRUM      NOT AVBL
MASSENA        CLEAR     78  61  55 SW7       30.04S
SARANAC LAKE   CLEAR     75  59  57 W3        30.09F
PLATTSBURGH    PTCLDY    76  63  64 N7        30.03S
$$

NYZ001>004-010>016-019>021-130100-
WEST


CITY           SKY/WX    TMP DP  RH WIND       PRES   REMARKS
NIAGARA FALLS  CLOUDY    78  59  51 SW7       30.04F
BUFFALO        CLOUDY    78  57  48 SW5       30.06F
DUNKIRK        MOCLDY    77  61  57 SE3       30.06F
JAMESTOWN      MOCLDY    73  61  64 S3        30.12F
WELLSVILLE     MOCLDY    74  58  57 SW6       30.16S
ROCHESTER      MOCLDY    77  56  48 E3        30.07F
PENN YAN       CLOUDY    78  63  59 CALM      30.09S
$$

             KEY
       WCI = WIND CHILL INDEX
       VSB = VISIBILITY
       HX  = HEAT INDEX
$$


USA.gov is the U.S. government's official web portal to all federal, state and local government web resources and services.